Location: Unspecified
(43.8044°N, 11.0278°E)
Time: 15:31:54
(UTC+02:00)

Cosmos 2058 - Visible Passes

Search period start: 06 July 2015 00:00
Search period end: 16 July 2015 00:00
Orbit: 566 x 589 km, 82.5° (Epoch: 06 July)

Date Brightness Start Highest point End Pass type
(mag) Time Alt. Az. Time Alt. Az. Time Alt. Az.
06 Jul 5.8 21:49:01 10° WSW 21:52:16 21° WNW 21:55:25 10° NNW visible
07 Jul 6.0 21:54:03 10° WSW 21:56:44 16° WNW 21:59:15 10° NNW visible
08 Jul 6.3 21:59:30 10° W 22:01:14 12° WNW 22:02:46 10° NW visible
